This is the latest recevied weather packets stored in our database for station/object SP1BMW-13. If no packets are shown the sender has not sent any weather packets the latest 10 day(s).
| Time | Temp. | Humidity | Pressure | Rain* | Wind** | Luminosity | Snow |
|---|---|---|---|---|---|---|---|
| 1777147065 | 8.89° C | 61% | 1010.7 hPa | 0 mm | 2.68 m/s, 222° | 0 W/m² | - |
| 1777147006 | 8.89° C | 61% | 1010.7 hPa | 0 mm | 1.79 m/s, 275° | 0 W/m² | - |
| 1777146946 | 8.89° C | 61% | 1010.9 hPa | 0 mm | 2.68 m/s, 199° | 0 W/m² | - |
| 1777146886 | 8.89° C | 61% | 1010.8 hPa | 0 mm | 2.24 m/s, 281° | 0 W/m² | - |
| 1777146826 | 8.89° C | 61% | 1010.7 hPa | 0 mm | 4.92 m/s, 247° | 0 W/m² | - |
| 1777146766 | 8.89° C | 61% | 1010.8 hPa | 0 mm | 1.34 m/s, 270° | 0 W/m² | - |
| 1777146705 | 9.44° C | 61% | 1010.8 hPa | 0 mm | 2.68 m/s, 249° | 0 W/m² | - |
| 1777146645 | 9.44° C | 61% | 1010.8 hPa | 0 mm | 2.24 m/s, 265° | 0 W/m² | - |
| 1777146585 | 9.44° C | 61% | 1010.7 hPa | 0 mm | 1.79 m/s, 304° | 0 W/m² | - |
| 1777146526 | 9.44° C | 61% | 1010.8 hPa | 0 mm | 3.13 m/s, 322° | 0 W/m² | - |
| 1777146466 | 9.44° C | 60% | 1010.7 hPa | 0 mm | 3.58 m/s, 237° | 0 W/m² | - |
| 1777146405 | 9.44° C | 61% | 1011 hPa | 0 mm | 1.79 m/s, 290° | 0 W/m² | - |
| 1777146346 | 9.44° C | 61% | 1010.7 hPa | 0 mm | 2.24 m/s, 284° | 0 W/m² | - |
| 1777146286 | 9.44° C | 61% | 1010.6 hPa | 0 mm | 1.79 m/s, 195° | 0 W/m² | - |
| 1777146225 | 9.44° C | 61% | 1010.9 hPa | 0 mm | 2.24 m/s, 295° | 0 W/m² | - |
| 1777146166 | 9.44° C | 61% | 1010.7 hPa | 0 mm | 2.24 m/s, 286° | 0 W/m² | - |
| 1777146106 | 9.44° C | 61% | 1010.6 hPa | 0 mm | 2.24 m/s, 335° | 0 W/m² | - |
| 1777146045 | 9.44° C | 61% | 1010.7 hPa | 0 mm | 2.24 m/s, 283° | 0 W/m² | - |
| 1777145986 | 9.44° C | 61% | 1010.5 hPa | 0 mm | 1.79 m/s, 239° | 0 W/m² | - |
| 1777145926 | 9.44° C | 61% | 1010.6 hPa | 0 mm | 2.68 m/s, 255° | 0 W/m² | - |
| 1777145866 | 9.44° C | 61% | 1010.6 hPa | 0 mm | 1.34 m/s, 275° | 0 W/m² | - |
| 1777145806 | 9.44° C | 60% | 1010.8 hPa | 0 mm | 2.68 m/s, 274° | 0 W/m² | - |
| 1777145746 | 9.44° C | 60% | 1010.6 hPa | 0 mm | 3.58 m/s, 239° | 0 W/m² | - |
| 1777145685 | 9.44° C | 60% | 1010.6 hPa | 0 mm | 4.02 m/s, 281° | 0 W/m² | - |
| 1777145626 | 9.44° C | 60% | 1010.5 hPa | 0 mm | 4.92 m/s, 233° | 0 W/m² | - |
* Rain latest hour (hover to see other rain measurements)
** Current wind speed in m/s (hover to see current wind gust speed)